Home > Weather > Chhindwara > Past weeks

Flag for India Past Weather in Chhindwara, Madhya Pradesh, India — Yesterday and Last 2 Weeks

Now
97 °F

Passing clouds.


Feels Like: 98 °F
Forecast: 80 / 99 °F
Wind: 3 mph from Northeast

Location: Nagpur Sonegaon

Current Time: May 29, 2016 at 9:00:45 PM

Latest Report: May 29, 2016 at 8:30 PM


Visibility: 2 mi

Pressure: 29.62 "Hg (27.45 "Hg at 687m altitude)

Humidity: 32%

Dew Point: 63 °F

Location of ChhindwaraLocation

Past Weather in Chhindwara — Graph

°F

Chhindwara Temperature Yesterday

Maximum temperature yesterday: 111 °F (at 4:30 PM)
Minimum temperature yesterday: 90 °F (at 4:30 AM)
Average temperature yesterday: 101 °F

High & Low Weather Summary for the Past Weeks

 TemperatureHumidityPressure
High115 °F (May 17, 3:30 PM)71% (May 25, 8:30 AM)29.92 "Hg (May 25, 8:30 AM)
Low84 °F (May 26, 4:00 AM)10% (May 21, 6:00 PM)29.18 "Hg (May 20, 1:30 PM)
Average100 °F29%29.62 "Hg
* Reported May 14 6:30 PM — May 29 7:00 PM, Chhindwara, Weather by CustomWeather, © 2016

Note: Actual official high and low records may vary slightly from our data, if they occured in-between our weather recording intervals... More about our weather records

Advertising

Chhindwara Weather History for the Previous 24 Hours

Scroll right to see more
 ConditionsComfort  
Time TempWeatherWind HumidityBarometerVisibility
7:00 PM
Sun, May 29
99 °FScattered clouds.9 mph33%29.59 "Hg2 mi
6:30 PM99 °FScattered clouds.10 mph31%29.59 "Hg2 mi
5:30 PM108 °FScattered clouds.12 mph22%29.56 "Hg4 mi
4:30 PM108 °FScattered clouds.9 mph23%29.56 "Hg4 mi
4:00 PM108 °FScattered clouds.12 mph23%29.56 "Hg4 mi
3:30 PM108 °FScattered clouds.8 mph23%29.59 "Hg4 mi
3:00 PM108 °FScattered clouds.12 mph22%29.59 "Hg4 mi
2:30 PM108 °FScattered clouds.12 mph22%29.62 "Hg4 mi
2:00 PM106 °FScattered clouds.8 mph25%29.62 "Hg4 mi
1:30 PM106 °FScattered clouds.8 mph23%29.65 "Hg4 mi
1:00 PM106 °FScattered clouds.8 mph23%29.68 "Hg4 mi
12:30 PM104 °FScattered clouds.8 mph26%29.68 "Hg4 mi
11:30 AM102 °FScattered clouds.9 mph29%29.71 "Hg4 mi
11:00 AM102 °FScattered clouds.9 mph29%29.71 "Hg4 mi
10:30 AM100 °FScattered clouds.10 mph33%29.74 "Hg4 mi
10:00 AM100 °FScattered clouds.13 mph31%29.74 "Hg4 mi
9:30 AM100 °FPassing clouds.10 mph33%29.74 "Hg4 mi
9:00 AM99 °FClear.14 mph35%29.74 "Hg4 mi
8:30 AM97 °FClear.16 mph37%29.74 "Hg4 mi
8:00 AM97 °FClear.13 mph37%29.74 "Hg4 mi
7:30 AM95 °FClear.10 mph36%29.71 "Hg4 mi
7:00 AM93 °FClear.8 mph36%29.71 "Hg4 mi
6:30 AM91 °FClear.6 mph38%29.71 "Hg4 mi
6:00 AM90 °FHaze.7 mph38%29.68 "Hg3 mi
5:30 AM90 °FHaze.9 mph38%29.68 "Hg3 mi
5:00 AM90 °FHaze.8 mph36%29.68 "Hg3 mi
4:30 AM90 °FHaze.7 mph33%29.65 "Hg3 mi
4:00 AM91 °FHaze.3 mph32%29.65 "Hg3 mi
3:30 AM91 °FHaze.3 mph32%29.65 "Hg3 mi
3:00 AM90 °FHaze.1 mph33%29.65 "Hg3 mi
2:30 AM88 °FHaze.No wind35%29.65 "Hg3 mi
2:00 AM90 °FHaze.No wind33%29.65 "Hg3 mi
1:30 AM90 °FHaze.2 mph33%29.65 "Hg3 mi
1:00 AM91 °FHaze.2 mph32%29.65 "Hg3 mi
12:30 AM91 °FHaze.3 mph32%29.65 "Hg3 mi
12:00 AM91 °FHaze.2 mph30%29.65 "Hg3 mi
11:30 PM
Sat, May 28
95 °FHaze.2 mph28%29.65 "Hg3 mi
11:00 PM97 °FHaze.2 mph27%29.65 "Hg3 mi
10:30 PM97 °FHaze.6 mph25%29.65 "Hg3 mi
10:00 PM97 °FHaze.6 mph25%29.65 "Hg3 mi
9:30 PM99 °FHaze.7 mph21%29.65 "Hg3 mi
9:00 PM100 °FHaze.6 mph20%29.62 "Hg3 mi
Weather by CustomWeather, © 2016

See weather overviewHow to use our weather pages